Weather in Ozernyy

Russia / Republic of Mordovia     54°24′29″N   42°41′44″E
temp.,
°C
wind,
m/s
gust,
m/s
humid.,
%
clouds,
%
prec.,
mm/h
press.,
hPa
HPBL,
m
28 july, wed
wed2800:00+17ese006928 0.0 101811
03:00+15wnw11750 0.0 101811
06:00+16ne13795 0.1 101878
09:00+24ne11510 0.1 1017595
12:00+28nnw123699 0.0 10162033
15:00+29wnw1330100 0.0 10142807
18:00+25se1145100 0.0 101312
21:00+17nw41283100 0.0 1014402
29 july, thu
thu2900:00+17e0181100 0.0 101312
03:00+16s2692100 0.7 1012151
06:00+16se2695100 0.7 1010165
09:00+20s41083100 0.8 1007624
12:00+24w596826 0.7 10051303
15:00+25wnw695865 1.4 10051533
18:00+23wnw486766 0.2 1006829
21:00+19nw238286 0.2 100659
30 july, fri
fri3000:00+17ssw229131 0.0 100722
03:00+17sw238775 0.0 100760
06:00+20ssw2775100 0.0 1007213
09:00+26sw345315 0.0 1006666
12:00+30sw3638100 0.1 10052760
15:00+21nnw51088100 1.3 1006389
18:00+20sse3695100 1.1 1006231
21:00+18ssw279964 1.5 1005241
31 july, sat
sat3100:00+17w259815 0.0 1005127
03:00+17wnw229816 0.0 100639
06:00+18w259714 0.0 1006148
09:00+23w36650 0.0 1007695
12:00+28w5735100 0.1 10072151
15:00+29w692927 0.1 10063103
18:00+27w38385 0.0 10071084
21:00+21w2252100 0.0 100837
1 august, sun
sun100:00+18w22635 0.0 100913
03:00+16w117093 0.0 101011
06:00+18ssw126920 0.0 101155
09:00+25sw244589 0.0 1010585
12:00+30sw46314 0.0 10092244
15:00+32sw58272 0.0 10083154
18:00+30s493362 0.0 1006629
21:00+27sw4938100 0.0 1008348